CZ-3B DEB, 40158

Orbit data source: Space-Track

CZ-3B DEB, 40158 is space debris in HEO originally from a launch on Sat, 04 Sep 2010 UTC launched from the Xichang Space Center, China (XSC). Debris objects in space refer to the collection of defunct objects orbiting the Earth. Examples of debris include non-operational satellites, rocket bodies, and fragments generated from explosions, collisions, or faulty payload assembly.

Loading next visibility...
Identifier
40158, 2010-042K
Orbit
HEO
Country
Flag of CNCN / PRC
Related business
Manufacturer
CALT
Mission
Spacecraft
Bus & Motor
Unknown
Mass
Unknown
Launch date (UTC)
2010-09-04 (15 years ago)
Launch vehicle
Unknown
Launch site
Xichang Space Center, China (XSC)
Object type
Payload
Rocket body
Debris
Shape & HBR
Unknown shape, 0.2 m
Radar Cross Section
Medium (>0.1 m² and <1 m²)

Expand to show TLE details & history
Last TLE update: 9 months ago

TLE from 9 months ago
0 CZ-3B DEB
1 40158U 10042K   25077.29840600 -.00000173  00000-0  00000-0 0  9997
2 40158  26.8698 330.1051 7314626 248.6652 346.8950  1.88756812 78134
Epoch: 2025-03-18T07:09Z
TLE epoch observation values (Epoch: 2025-03-18T07:09:42.278Z)
Latitude
7.28634°
Longitude
-147.94389°
Altitude
5,676.694 km
Speed
7.191 km/s
True Right ascension
09h 02m 20s
True Declination
7° 15' 39"
Sunlit
Object was in daylight at epoch
Visualization orbit readout
Latitude
Unknown
Longitude
Unknown
Altitude
Unknown
Speed
Unknown
Apparent Right ascension
Unknown
Apparent Declination
Unknown
Sunlit
N/A
Visualization observer readout
Local Sidereal Time
05:24:22
Azimuth
Unknown
Elevation
Unknown
Doppler factor
Unknown
Orbital elements
Apogee altitude
41,514.436 km
Perigee altitude
1,049.657 km
Semi-major axis
27,660.184 km
Eccentricity
0.73146
Inclination
26.8698°
RAAN
330.1051°
Arg. of periapsis
248.6652°
True anomaly
274.35615°
Mean anomaly
346.895°
Eccentric anomaly
319.89991°
Mean motion
0.4718 °/min
Orbital period
763.03 mins
BSTAR
0
Loading maneuver chart data...
Computing Atmospheric mass density...
Loading historical data...
Loading historical data...
Loading historical data...
Loading historical data...
Loading historical data...
Loading historical data...
Loading historical data...

Documentation

Showing up to 5 results
|